星链-35758(STARLINK-35758)

导读

STARLINK-35758是美国于2025年10月28日发射的星链系列卫星,隶属于SpaceX公司的星链互联网星座项目。星链旨在构建全球卫星互联网,为全球偏远地区、海洋等网络覆盖薄弱区域提供高速宽带服务,该卫星加入后将进一步扩容星链星座的服务覆盖与网络容量。

Basic Information
目录编号:
66229
目录名称:
STARLINK-35758
国际标识:
2025-244Z
轨道中心:
EARTH
卫星名称:
星链-35758
卫星全名:
星链-35758(STARLINK-35758)
卫星状态:
在轨 (已飞行312 天)
发射日期:
2025-10-28 UTC
国别 :
美国 (US)
星等 :
--
Orbit Information
数据来源 国际轨道数据 AOE轨道数据
星历时间 2026-09-05T09:14:39+0800
18小时前
查看轨道信息
2026-09-01T23:00:00+0800
4天前
查看轨道信息
半长轴 6840.826km 6840.895km
偏心率 0.0001217 0.0000728
轨道倾角 53.158° 53.157°
近地点辐角 98.877° 100.233°
升交点赤经 113.741° 129.762°
平近点角 261.237° 40.012°
近地点 461.856km 462.259km
远地点 463.522km 463.257km
周期 93.847分钟 93.849分钟
每日圈数 15.34405 15.343817
Detailed Information
固有亮度:
5
最大亮度:
2.5
卫星平台:
Starlink V1.0
覆盖范围:
全球
运营商:
太空探索技术公司
运营商所在国:
美国
制造商(研发单位):
太空探索技术公司
制造商所在国:
美国
使用方式:
暂无
Satellite Introduction
Starlink 计划是 SpaceX 推出的全球卫星互联网项目,通过发射低轨道卫星,为全球尤其是偏远地区提供高速、低延迟的互联网服务。自 2019 年起,Starlink 已部署数千颗卫星,旨在缩小全球数字鸿沟,推动互联网普及。该项目还为军事、航空等行业提供通信支持,带来广泛经济效益。
2D Orbit Map
3D Orbit Map
Orbit Altitude Analysis Chart
Orbit Inclination Analysis Chart
Orbit Comprehensive Analysis Chart
View Comprehensive Chart
Conjunction Data List
Event ID Objects TCA Miss Dist (km) Collision Risk Probability Collision Risk Index (CRI) Action
CDM_260907-064306-473906-622921
2026-09-07T
06:43:20+0000
0.261 km
中距离
3.848008E-4 高风险 0.87
CDM_260907-151906-473906-622921
2026-09-07T
15:19:10+0000
0.922 km
远距离
1.619266E-5 中风险 0.59
CDM_260907-165206-473906-622921
2026-09-07T
16:52:57+0000
1.819 km
极远距离
1.805448E-6 低风险 0.4
CDM_260907-050906-473906-622921
2026-09-07T
05:09:32+0000
1.984 km
极远距离
1.451531E-6 低风险 0.38
CDM_260907-081706-473906-622921
2026-09-07T
08:17:07+0000
2.284 km
极远距离
1.072111E-6 低风险 0.36
CDM_260906-094505-262506-622921
2026-09-06T
09:45:53+0000
2.966 km
极远距离
8.309707E-7 极低风险 0.33
CDM_260907-134506-473906-622921
2026-09-07T
13:45:22+0000
2.926 km
极远距离
7.341587E-7 极低风险 0.32